Wind_Speed
7 10 11 13 11 9 8 7 7 5 3 3 4 4 5 8 10 12 9 9 13 16 15 17 17 20 23 26 30 33 32 32
5 5 7 6 6 6 5 4 4 5 6 7 8 10 11 13 15 15 12 13 15 16 17 18 22 25 28 31 36 35 30 33
5 6 5 5 5 5 5 4 3 5 6 7 9 11 13 15 15 14 17 18 17 17 18 23 26 31 35 37 39 38 36 36
7 8 9 8 7 6 5 5 5 6 8 9 9 11 12 14 16 17 18 18 19 20 22 27 28 33 37 38 37 37 39 39
6 7 7 8 9 8 8 8 9 9 9 11 11 12 14 17 18 20 20 23 25 25 27 30 31 34 34 34 37 39 43 46
9 10 11 11 12 13 13 13 13 13 13 14 15 15 17 18 22 24 25 28 29 32 32 32 33 36 38 38 39 41 43 44
13 16 16 16 18 18 18 18 19 18 18 17 18 18 17 16 18 22 28 32 35 38 36 33 36 41 41 47 38 42 49 45
17 17 16 16 17 21 22 23 22 22 22 24 22 20 19 19 23 23 29 29 32 35 39 38 41 35 40 40 44 48 45 55
19 18 20 20 20 22 23 24 26 27 21 29 27 23 22 24 27 29 33 36 40 35 37 33 34 38 41 44 49 49 48 51
24 21 20 21 23 24 25 27 26 26 27 33 30 23 26 27 30 35 36 39 40 34 33 35 38 42 43 43 46 50 52 51
26 23 24 23 24 26 26 28 28 28 27 27 24 26 27 31 35 37 40 38 34 35 35 39 41 42 42 37 46 49 59 67
23 28 30 26 26 26 26 25 26 25 24 24 22 24 30 35 37 40 41 42 40 39 40 43 45 46 46 50 56 60 64 68
27 26 28 30 30 31 29 27 27 27 27 28 28 31 34 38 38 42 44 43 42 42 44 45 47 49 50 52 56 57 64 66
23 25 27 29 30 30 31 30 30 31 31 32 34 35 38 39 41 43 43 44 44 45 46 47 48 47 51 55 56 57 59 67
23 25 27 29 32 33 34 35 36 37 36 36 36 37 39 40 42 43 43 44 45 45 47 50 52 52 55 55 58 58 56 67
23 24 25 27 25 30 34 34 34 34 34 35 37 38 40 42 42 42 43 43 45 47 50 53 54 56 57 59 60 62 60 65
24 24 26 27 28 28 30 30 30 30 34 35 37 38 39 39 41 42 44 45 48 51 54 55 57 58 59 61 62 65 65 66
28 28 27 29 31 30 31 31 32 34 35 36 37 37 38 39 41 44 46 49 52 54 57 58 59 61 62 63 64 65 65 65
33 33 32 32 33 33 36 35 35 35 35 36 36 37 39 42 44 47 50 53 55 57 58 60 61 62 62 63 64 64 66 67
Wind_Direction
92 107 132 148 158 159 158 133 138 153 154 171 165 187 191 198 209 222 233 246 225 220 231 250 266 274 282 289 294 300 302 310
140 145 143 165 176 186 194 184 189 204 215 225 219 224 224 227 235 237 245 239 227 232 246 261 272 279 284 289 294 297 297 308
203 211 215 217 229 236 235 246 253 246 253 252 249 246 243 247 249 246 237 227 233 245 261 273 278 284 287 290 289 290 294 293
228 229 231 236 250 258 269 274 279 286 297 301 298 285 277 264 250 241 236 238 245 256 267 277 284 286 285 283 286 290 295 294
244 247 244 249 257 266 273 283 290 292 288 283 281 280 278 266 257 253 253 250 251 260 267 274 280 285 289 289 290 296 299 299
257 253 255 260 266 268 272 279 283 290 294 292 283 275 272 271 267 267 272 268 262 267 270 275 284 289 297 295 294 297 302 302
276 272 271 267 263 268 274 279 284 283 287 292 286 275 277 278 274 276 278 274 271 271 273 276 284 292 298 300 294 301 298 299
289 272 280 281 273 273 277 285 290 291 296 301 294 283 280 284 288 283 283 290 287 284 284 278 282 297 301 298 290 293 289 290
278 270 271 280 286 290 293 292 288 289 279 287 286 285 284 289 288 289 289 292 292 276 292 292 286 290 298 292 301 282 289 286
265 265 263 267 274 284 290 290 292 292 293 283 256 274 277 283 287 290 295 297 296 286 291 299 291 290 296 302 304 283 287 281
249 253 262 257 265 276 280 282 285 287 289 294 277 266 274 281 284 292 296 303 305 297 296 294 295 293 295 284 286 282 287 289
255 249 250 254 258 267 272 269 273 275 277 281 282 273 276 279 288 296 299 302 300 299 300 301 300 298 295 283 288 290 291 292
257 253 248 251 258 263 265 266 267 268 270 273 276 275 281 286 292 293 297 298 299 300 301 299 298 297 294 292 292 293 294 297
262 259 258 258 259 259 258 261 265 269 269 270 273 277 281 286 290 291 293 295 297 297 297 298 300 295 293 296 296 298 300 295
266 263 260 255 253 254 256 259 264 269 268 270 275 279 282 284 287 291 294 294 295 295 297 299 299 299 300 301 300 298 294 282
267 270 265 263 259 253 255 260 263 266 269 271 274 279 282 286 288 287 289 290 292 296 298 298 301 301 301 300 301 299 297 289
266 269 269 265 264 262 262 262 264 266 267 273 276 279 282 282 284 287 289 293 295 297 298 299 300 300 301 301 300 300 299 298
267 268 271 271 267 264 266 268 270 273 277 279 282 282 283 286 289 291 294 296 297 297 298 299 300 301 302 302 302 302 302 301
266 268 269 267 266 264 266 270 274 275 277 280 281 284 287 289 290 293 296 296 297 297 298 299 301 303 304 304 304 303 303 303
Height
5752 5753 5753 5756 5757 5758 5759 5757 5759 5761 5762 5763 5764 5766 5769 5771 5774 5778 5778 5780 5783 5785 5785 5787 5786 5786 5786 5784 5783 5781 5780 5779
5754 5755 5757 5759 5759 5759 5759 5760 5761 5763 5765 5765 5766 5769 5770 5771 5774 5776 5777 5779 5781 5782 5782 5782 5783 5783 5779 5778 5777 5775 5773 5772
5756 5756 5757 5759 5760 5761 5762 5762 5764 5766 5767 5769 5769 5769 5769 5770 5771 5773 5776 5777 5779 5779 5778 5778 5777 5776 5774 5773 5770 5768 5766 5763
5757 5757 5759 5759 5760 5761 5761 5762 5763 5764 5765 5766 5767 5768 5767 5769 5771 5772 5773 5774 5774 5773 5773 5773 5771 5769 5769 5766 5762 5760 5758 5755
5757 5758 5759 5760 5761 5761 5762 5762 5763 5763 5765 5766 5767 5767 5768 5768 5769 5770 5770 5770 5770 5769 5768 5767 5766 5763 5761 5757 5754 5752 5748 5744
5757 5757 5758 5759 5761 5761 5761 5762 5762 5763 5763 5764 5764 5764 5764 5765 5766 5765 5764 5766 5766 5765 5761 5761 5757 5754 5751 5749 5746 5742 5737 5733
5756 5757 5758 5759 5759 5759 5759 5760 5760 5761 5761 5761 5761 5760 5761 5761 5761 5761 5761 5760 5758 5756 5754 5752 5750 5746 5744 5739 5736 5732 5727 5723
5753 5754 5755 5755 5756 5757 5757 5757 5757 5757 5757 5757 5757 5757 5757 5757 5756 5756 5755 5752 5750 5747 5746 5743 5740 5738 5737 5733 5729 5725 5721 5715
5750 5750 5750 5750 5750 5751 5752 5753 5753 5753 5754 5753 5752 5752 5751 5751 5751 5750 5748 5745 5741 5734 5740 5735 5734 5731 5728 5723 5719 5712 5710 5705
5747 5747 5747 5747 5747 5748 5748 5748 5748 5748 5749 5745 5741 5745 5746 5745 5745 5743 5741 5740 5735 5733 5730 5727 5725 5722 5719 5714 5710 5706 5699 5694
5741 5742 5743 5743 5744 5743 5743 5744 5744 5744 5743 5740 5735 5739 5742 5740 5738 5737 5735 5731 5728 5726 5722 5719 5716 5712 5708 5703 5700 5695 5690 5682
5736 5737 5738 5739 5739 5739 5738 5738 5738 5738 5737 5737 5737 5736 5735 5732 5731 5728 5726 5723 5720 5717 5713 5709 5705 5701 5698 5694 5689 5682 5676 5668
5731 5731 5732 5732 5733 5733 5732 5733 5733 5732 5732 5732 5731 5729 5728 5724 5723 5720 5717 5715 5711 5707 5703 5700 5696 5690 5685 5681 5675 5670 5662 5654
5725 5725 5725 5725 5726 5726 5726 5726 5726 5725 5725 5724 5722 5722 5720 5718 5716 5712 5709 5706 5702 5698 5694 5689 5684 5679 5674 5668 5661 5656 5645 5637
5718 5718 5718 5717 5718 5719 5719 5719 5719 5718 5717 5715 5714 5713 5712 5710 5707 5704 5700 5697 5693 5688 5683 5678 5673 5667 5661 5655 5648 5641 5635 5625
5711 5710 5709 5709 5710 5710 5710 5711 5711 5710 5709 5709 5707 5705 5702 5700 5698 5695 5692 5688 5683 5677 5671 5666 5660 5655 5648 5641 5635 5628 5621 5614
5705 5704 5703 5703 5702 5703 5703 5703 5702 5702 5701 5700 5699 5697 5694 5692 5689 5685 5681 5676 5671 5666 5660 5654 5648 5641 5635 5628 5621 5614 5607 5599
5697 5697 5697 5696 5695 5695 5694 5694 5694 5693 5692 5691 5689 5687 5684 5681 5677 5674 5669 5664 5659 5654 5647 5641 5635 5629 5622 5615 5608 5600 5593 5586
5688 5688 5688 5688 5687 5687 5687 5686 5686 5685 5683 5681 5679 5677 5674 5671 5667 5662 5657 5652 5647 5641 5635 5628 5621 5614 5608 5599 5592 5586 5579 5571